| time (UTC) | temp C | wind direction | speed KPH | gust KPH | rain 1hr cm | rain 24hr cm | rain mn cm | humidity % | barometer mb |
| 20260502233801 | 7 | 0 | 0.0 | 3.2 | 0.00 | 0.00 | 0.00 | 62 | 1016.3 |
| 20260502232801 | 7 | 342 | 0.0 | 3.2 | 0.00 | 0.00 | 0.00 | 60 | 1016.4 |
| 20260502231800 | 7 | 343 | 0.0 | 1.6 | 0.00 | 0.00 | 0.00 | 58 | 1016.3 |
| 20260502230802 | 7 | 350 | 0.0 | 3.2 | 0.00 | 0.00 | 0.00 | 61 | 1016.2 |
| 20260502225801 | 7 | 357 | 0.0 | 1.6 | 0.00 | 0.00 | 0.00 | 57 | 1016.3 |
| 20260502224801 | 7 | 351 | 0.0 | 1.6 | 0.00 | 0.00 | 0.00 | 59 | 1016.4 |
| 20260502223753 | 7 | 4 | 0.0 | 3.2 | 0.00 | 0.00 | 0.00 | 58 | 1016.4 |
| 20260502220731 | 7 | 3 | 3.2 | 11.3 | 0.00 | 0.00 | 0.00 | 56 | 1016.3 |
| 20260502215730 | 7 | 14 | 0.0 | 3.2 | 0.00 | 0.00 | 0.00 | 60 | 1016.2 |
| 20260502214800 | 7 | 338 | 0.0 | 4.8 | 0.00 | 0.00 | 0.00 | 59 | 1016.1 |
| 20260502212729 | 8 | 333 | 0.0 | 4.8 | 0.00 | 0.00 | 0.00 | 51 | 1015.8 |
| 20260502210719 | 8 | 353 | 0.0 | 14.5 | 0.00 | 0.00 | 0.00 | 53 | 1016.0 |
| 20260502205719 | 8 | 349 | 0.0 | 4.8 | 0.00 | 0.00 | 0.00 | 52 | 1015.9 |
| 20260502204713 | 8 | 326 | 3.2 | 9.7 | 0.00 | 0.00 | 0.00 | 54 | 1015.9 |
| 20260502203714 | 8 | 354 | 1.6 | 4.8 | 0.00 | 0.00 | 0.00 | 56 | 1016.0 |
| 20260502202719 | 8 | 317 | 1.6 | 11.3 | 0.00 | 0.00 | 0.00 | 53 | 1016.0 |
| 20260502200701 | 7 | 322 | 3.2 | 6.4 | 0.00 | 0.00 | 0.00 | 56 | 1015.9 |
| 20260502195656 | 7 | 352 | 0.0 | 11.3 | 0.00 | 0.00 | 0.00 | 59 | 1016.1 |
| 20260502194653 | 8 | 357 | 1.6 | 4.8 | 0.00 | 0.00 | 0.00 | 57 | 1016.0 |
| 20260502193649 | 8 | 354 | 0.0 | 4.8 | 0.00 | 0.00 | 0.00 | 52 | 1016.0 |
| 20260502192648 | 8 | 351 | 1.6 | 6.4 | 0.00 | 0.00 | 0.00 | 52 | 1016.2 |
| 20260502191649 | 9 | 60 | 3.2 | 3.2 | 0.00 | 0.00 | 0.00 | 52 | 1016.2 |
| 20260502190646 | 8 | 330 | 0.0 | 6.4 | 0.00 | 0.00 | 0.00 | 54 | 1016.3 |
| 20260502185645 | 8 | 302 | 1.6 | 4.8 | 0.00 | 0.00 | 0.00 | 53 | 1016.5 |
| 20260502184643 | 8 | 40 | 3.2 | 6.4 | 0.00 | 0.00 | 0.00 | 49 | 1016.2 |
| 20260502183642 | 9 | 317 | 3.2 | 9.7 | 0.00 | 0.00 | 0.00 | 45 | 1016.3 |
| 20260502182639 | 10 | 300 | 1.6 | 6.4 | 0.00 | 0.00 | 0.00 | 48 | 1016.1 |
| 20260502181640 | 9 | 336 | 1.6 | 9.7 | 0.00 | 0.00 | 0.00 | 51 | 1016.3 |
| 20260502180633 | 8 | 344 | 0.0 | 9.7 | 0.00 | 0.00 | 0.00 | 54 | 1016.5 |
| 20260502161629 | 8 | 18 | 3.2 | 9.7 | 0.00 | 0.00 | 0.00 | 56 | 1016.8 |
| 20260502160629 | 8 | 308 | 3.2 | 16.1 | 0.00 | 0.00 | 0.00 | 57 | 1016.8 |
| 20260502151604 | 7 | 335 | 1.6 | 12.9 | 0.00 | 0.13 | 0.00 | 57 | 1016.9 |
| 20260502150602 | 7 | 46 | 1.6 | 17.7 | 0.00 | 0.13 | 0.00 | 58 | 1016.9 |
| 20260502123537 | 1 | 252 | 3.2 | 4.8 | 0.00 | 0.28 | 0.00 | 98 | 1016.5 |
| 20260502122533 | 1 | 331 | 0.0 | 1.6 | 0.00 | 0.28 | 0.00 | 99 | 1016.4 |
| 20260502121532 | 1 | 342 | 0.0 | 3.2 | 0.00 | 0.28 | 0.00 | 99 | 1016.3 |
| 20260502115529 | 1 | 344 | 0.0 | 3.2 | 0.00 | 0.28 | 0.00 | 99 | 1016.2 |
| 20260502114529 | 0 | 341 | 0.0 | 0.0 | 0.00 | 0.28 | 0.00 | 99 | 1015.9 |
| 20260502113528 | 0 | 347 | 0.0 | 0.0 | 0.00 | 0.28 | 0.00 | 99 | 1016.2 |
| 20260502112531 | 0 | 345 | 0.0 | 0.0 | 0.00 | 0.28 | 0.00 | 99 | 1016.2 |
| 20260502111528 | -1 | 347 | 0.0 | 0.0 | 0.00 | 0.28 | 0.00 | 99 | 1016.1 |
| 20260502110521 | -1 | 346 | 0.0 | 0.0 | 0.00 | 0.28 | 0.00 | 99 | 1016.0 |
| 20260502105522 | -1 | 345 | 0.0 | 0.0 | 0.00 | 0.28 | 0.00 | 99 | 1016.0 |
| 20260502104516 | -1 | 341 | 0.0 | 0.0 | 0.00 | 0.28 | 0.00 | 99 | 1016.0 |
| 20260502103509 | -1 | 347 | 0.0 | 0.0 | 0.00 | 0.28 | 0.00 | 99 | 1016.0 |
| 20260502102506 | -1 | 345 | 0.0 | 0.0 | 0.00 | 0.28 | 0.00 | 99 | 1016.1 |
| 20260502101510 | -1 | 350 | 0.0 | 0.0 | 0.00 | 0.28 | 0.00 | 99 | 1016.0 |
| 20260502100502 | -1 | 346 | 0.0 | 0.0 | 0.00 | 0.28 | 0.00 | 99 | 1016.0 |
| 20260502091502 | 0 | 345 | 0.0 | 0.0 | 0.00 | 0.28 | 0.00 | 99 | 1016.0 |
| 20260502090459 | 0 | 345 | 0.0 | 0.0 | 0.00 | 0.28 | 0.00 | 99 | 1015.9 |
| 20260502071434 | 0 | 345 | 0.0 | 0.0 | 0.00 | 0.28 | 0.00 | 98 | 1015.8 |
| 20260502070429 | 0 | 343 | 0.0 | 0.0 | 0.00 | 0.28 | 0.00 | 98 | 1015.8 |
| 20260502065429 | 0 | 345 | 0.0 | 0.0 | 0.00 | 0.28 | 0.00 | 98 | 1015.9 |
| 20260502064426 | 0 | 345 | 0.0 | 0.0 | 0.00 | 0.28 | 0.00 | 98 | 1015.9 |
| 20260502063423 | 0 | 346 | 0.0 | 0.0 | 0.00 | 0.28 | 0.00 | 98 | 1015.9 |
| 20260502062421 | 1 | 345 | 0.0 | 0.0 | 0.00 | 0.28 | 0.00 | 98 | 1016.0 |
| 20260502060422 | 1 | 350 | 0.0 | 1.6 | 0.00 | 0.28 | 0.00 | 97 | 1016.2 |
| 20260502054416 | 1 | 346 | 0.0 | 0.0 | 0.00 | 0.28 | 0.00 | 97 | 1016.3 |
| 20260502053412 | 1 | 345 | 0.0 | 0.0 | 0.00 | 0.28 | 0.00 | 97 | 1016.3 |
| 20260502052412 | 1 | 344 | 0.0 | 0.0 | 0.00 | 0.28 | 0.00 | 97 | 1016.3 |
| 20260502050408 | 1 | 347 | 0.0 | 1.6 | 0.00 | 0.28 | 0.00 | 97 | 1016.3 |
| 20260502045405 | 2 | 347 | 0.0 | 1.6 | 0.00 | 0.28 | 0.00 | 97 | 1016.3 |
| 20260502044404 | 2 | 340 | 0.0 | 1.6 | 0.00 | 0.28 | 0.00 | 97 | 1016.2 |
| 20260502043403 | 2 | 348 | 0.0 | 0.0 | 0.00 | 0.28 | 0.00 | 97 | 1015.9 |
| 20260502042358 | 2 | 347 | 0.0 | 0.0 | 0.00 | 0.28 | 0.00 | 96 | 1016.1 |
| 20260502041359 | 2 | 347 | 0.0 | 0.0 | 0.00 | 0.28 | 0.00 | 96 | 1016.4 |
| 20260502040400 | 2 | 348 | 0.0 | 0.0 | 0.00 | 0.28 | 0.00 | 96 | 1016.2 |
| 20260502035353 | 2 | 352 | 0.0 | 0.0 | 0.00 | 0.28 | 0.28 | 96 | 1016.0 |
| 20260502034352 | 2 | 348 | 0.0 | 0.0 | 0.00 | 0.28 | 0.28 | 96 | 1016.2 |
| 20260502033351 | 2 | 346 | 0.0 | 0.0 | 0.00 | 0.28 | 0.28 | 95 | 1016.1 |
| 20260502032347 | 3 | 347 | 0.0 | 1.6 | 0.00 | 0.28 | 0.28 | 95 | 1016.2 |
| 20260502031349 | 3 | 349 | 0.0 | 0.0 | 0.00 | 0.28 | 0.28 | 95 | 1016.4 |
| 20260502030344 | 3 | 349 | 0.0 | 0.0 | 0.00 | 0.28 | 0.28 | 94 | 1016.3 |
| 20260502025343 | 3 | 346 | 0.0 | 0.0 | 0.00 | 0.28 | 0.28 | 94 | 1016.5 |
| 20260502024340 | 3 | 345 | 0.0 | 1.6 | 0.00 | 0.28 | 0.28 | 93 | 1016.4 |
| 20260502023342 | 4 | 351 | 0.0 | 0.0 | 0.00 | 0.28 | 0.28 | 92 | 1016.3 |
| 20260502022335 | 4 | 346 | 0.0 | 0.0 | 0.00 | 0.28 | 0.28 | 91 | 1016.2 |
| 20260502021333 | 5 | 348 | 0.0 | 0.0 | 0.00 | 0.28 | 0.28 | 90 | 1016.0 |
| 20260502020329 | 5 | 347 | 0.0 | 0.0 | 0.00 | 0.28 | 0.28 | 90 | 1016.1 |
| 20260502015329 | 5 | 345 | 0.0 | 0.0 | 0.00 | 0.28 | 0.28 | 89 | 1015.8 |
| 20260502014330 | 5 | 343 | 0.0 | 1.6 | 0.00 | 0.28 | 0.28 | 88 | 1015.7 |
| 20260502013326 | 5 | 336 | 0.0 | 1.6 | 0.00 | 0.28 | 0.28 | 88 | 1015.5 |
| 20260502012324 | 5 | 348 | 0.0 | 3.2 | 0.00 | 0.28 | 0.28 | 87 | 1015.4 |
| 20260502011323 | 5 | 357 | 0.0 | 6.4 | 0.00 | 0.28 | 0.28 | 84 | 1014.9 |
| 20260502010320 | 6 | 21 | 1.6 | 6.4 | 0.00 | 0.28 | 0.28 | 82 | 1014.6 |
| 20260502005320 | 6 | 2 | 0.0 | 4.8 | 0.00 | 0.28 | 0.28 | 83 | 1014.6 |
| 20260502004319 | 6 | 2 | 0.0 | 3.2 | 0.00 | 0.28 | 0.28 | 85 | 1014.6 |
| 20260502003318 | 6 | 355 | 0.0 | 0.0 | 0.00 | 0.28 | 0.28 | 84 | 1014.8 |
| 20260502001313 | 7 | 346 | 0.0 | 0.0 | 0.00 | 0.28 | 0.28 | 80 | 1014.5 |
| 20260502000310 | 7 | 348 | 0.0 | 0.0 | 0.00 | 0.28 | 0.28 | 77 | 1014.6 |
| 20260501234307 | 8 | 350 | 0.0 | 0.0 | 0.00 | 0.28 | 0.28 | 75 | 1013.9 |